Regional Weather Roundup
Issued by NWS Jackson, KY

Home | Current Version | Previous Version | Graphics & Text | Print | Product List | Glossary On
Versions: 1 2 3 4 5 6 7 8 9 10 11 12 13 14 15 16 17 18 19 20 21 22 23 24 25 26 27
000
ASUS43 KJKL 190010
RWRJKL

EAST KENTUCKY HOURLY WEATHER ROUNDUP
NATIONAL WEATHER SERVICE JACKSON KY
700 PM EST WED JAN 18 2017

NOTE: "FAIR" INDICATES FEW OR NO CLOUDS BELOW 12,000 FEET WITH
NO SIGNIFICANT WEATHER AND/OR OBSTRUCTIONS TO VISIBILITY.

* THESE REPORTS ARE NOT UNDER NWS QUALITY CONTROL AND MAY NOT
  REPORT WEATHER SUCH AS PRECIPITATION AND FOG.

KYZ079-080-083-085-087-088-110-112-115-119-120-190100
...EASTERN KENTUCKY...

CITY           SKY/WX    TMP DP  RH WIND       PRES   REMARKS
JACKSON        CLOUDY    43  37  79 CALM      30.14S
6HR MIN TEMP:  43; 6HR MAX TEMP:  45;

LONDON         CLOUDY    45  36  70 CALM      30.14R
6HR MIN TEMP:  44; 6HR MAX TEMP:  51;

SOMERSET*      CLOUDY    43  36  75 CALM      30.16R
MONTICELLO*    MOCLDY    41  38  89 NW9       30.16R
6HR MIN TEMP:  41; 6HR MAX TEMP:  51;

WILLIAMSBURG*  CLOUDY    45  39  81 CALM      30.14R
MIDDLESBORO*   PTCLDY    45  39  81 CALM      30.14S
6HR MIN TEMP:  45; 6HR MAX TEMP:  53;

HARLAN APT*    PTCLDY    45  36  70 CALM      30.13F
PIKE CO APT*   CLOUDY    42  39  90 CALM      30.14S
BIG SANDY APT* CLOUDY    44  38  80 SW5       30.14F
6HR MIN TEMP:  44; 6HR MAX TEMP:  45;

MOREHEAD APT*  CLOUDY    43  36  75 SW3       30.16S
ASHLAND*       CLOUDY    45  36  70 CALM      30.15R
$$

KYZ035-036-041-042-044-050-067-078-099-190100
...CENTRAL KENTUCKY...

CITY           SKY/WX    TMP DP  RH WIND       PRES   REMARKS
MT STERLING*   CLOUDY    41  37  87 W6        30.17R
FLEMING/MASON* CLOUDY    41  37  84 W8        30.16R
DANVILLE*      PTCLDY    37  36  93 CALM      30.15F
LEXINGTON      CLOUDY    42  36  79 CALM      30.14S
6HR MIN TEMP:  42; 6HR MAX TEMP:  45;

FRANKFORT      CLOUDY    43  35  73 CALM      30.14S
6HR MIN TEMP:  42; 6HR MAX TEMP:  44;

LOUISVILLE     CLOUDY    43  34  70 W5        30.16R
6HR MIN TEMP:  42; 6HR MAX TEMP:  45;

LEBANON*         N/A     41  36  81 CALM      30.15S
GLASGOW*       PTCLDY    43  39  85 CALM      30.14R
BOWLING GREEN  CLOUDY    45  38  76 CALM      30.14F
6HR MIN TEMP:  45; 6HR MAX TEMP:  51;

$$

KYZ091>093-OHZ055-061-077-WVZ005-015-034-035-042-190100
...SOUTHERN OHIO/WEST VIRGINIA...

CITY           SKY/WX    TMP DP  RH WIND       PRES   REMARKS
COVINGTON      CLOUDY    40  36  86 SW5       30.13R
COLUMBUS       DRIZZLE   40  35  83 SW7       30.13S
DAYTON         CLOUDY    38  36  92 SW9       30.13S WCI  31
WILMINGTON     CLOUDY    38  36  92 W5        30.13S WCI  34
HUNTINGTON     CLOUDY    44  35  70 W3        30.14S
CHARLESTON     CLOUDY    43  37  79 NW5       30.15R
PINEVILLE*     CLOUDY    43  36  75 MISG      30.18S
BECKLEY        CLOUDY    39  35  86 W6        30.11R WCI  35
BLUEFIELD      CLOUDY    38  33  82 NW6       30.11R WCI  33
LOGAN CO APT*  CLOUDY    41  39  93 CALM      30.13R
$$

VAZ002-007-008-TNZ017-027-036-066-071-190100
...SOUTHWEST VIRGINIA/EAST TENNESSEE...

CITY           SKY/WX    TMP DP  RH WIND       PRES   REMARKS
WISE*          PTCLDY    41  36  81 CALM      30.12S
JONESVILLE*      N/A     45  39  81 CALM      30.14F
ABINGDON*      PTCLDY    48  39  71 CALM      30.11R
BRISTOL        CLOUDY    49  38  65 SW5       30.11R
MORRISTOWN*    CLEAR     50  37  62 CALM      30.11S
SEVIERVILLE*   CLEAR     48  41  76 CALM      30.11S
KNOXVILLE      CLOUDY    55  43  63 NW5       30.10S
LAFOLLETTE*    CLEAR     48  39  71 NE3       30.15R
OAK RIDGE      CLOUDY    53  42  66 CALM      30.12S
CROSSVILLE     CLOUDY    47  42  83 CALM      30.13R
NASHVILLE      CLOUDY    47  40  76 SE3       30.14F
$$

...KEY TO REMARKS...
VSB - VISIBILITY IN MILES
WCI - WIND CHILL INDEX
HX  - HEAT INDEX

$$




USA.gov is the U.S. government's official web portal to all federal, state and local government web resources and services.